timestamp,wind_dir_avg,wind_spd_avg,wind_spd_max_dir,wind_spd_gust,battery_voltage,lat,long
2023-08-12 00:04:00+00:00,214.0,7.99,213.0,8.81,12.73,47.59359,-54.27349
2023-08-12 00:14:00+00:00,214.0,7.73,220.0,8.61,12.41,47.59359,-54.27349
2023-08-12 00:24:00+00:00,208.0,6.99,205.0,8.14,12.41,47.59359,-54.27349
2023-08-12 00:34:00+00:00,211.0,7.3,205.0,8.36,12.41,47.59359,-54.27349
2023-08-12 00:44:00+00:00,212.0,8.54,216.0,9.73,12.41,47.59359,-54.27349
2023-08-12 00:54:00+00:00,212.0,7.38,211.0,8.24,12.41,47.59359,-54.27349
2023-08-12 01:04:00+00:00,214.0,6.47,215.0,7.2,12.41,47.59359,-54.27349
2023-08-12 01:14:01+00:00,225.0,7.98,229.0,9.3,12.41,47.59359,-54.27349
2023-08-12 01:24:01+00:00,214.0,8.54,215.0,9.28,12.41,47.59359,-54.27349
2023-08-12 01:34:01+00:00,195.0,3.86,207.0,4.56,12.41,47.59359,-54.27349
2023-08-12 01:44:01+00:00,182.0,3.66,181.0,3.96,12.41,47.59359,-54.27349
2023-08-12 01:54:01+00:00,193.0,4.75,194.0,4.92,12.41,47.59359,-54.27349
2023-08-12 02:04:01+00:00,214.0,4.45,215.0,4.98,12.41,47.59359,-54.27349
2023-08-12 02:14:00+00:00,198.0,2.43,201.0,3.03,12.41,47.59359,-54.27349
2023-08-12 02:24:00+00:00,206.0,2.14,199.0,2.49,12.41,47.59359,-54.27349
2023-08-12 02:34:00+00:00,191.0,1.23,187.0,1.37,12.41,47.59359,-54.27349
2023-08-12 02:44:00+00:00,170.0,3.29,170.0,3.87,12.41,47.59359,-54.27349
2023-08-12 02:54:00+00:00,170.0,3.38,168.0,3.91,12.41,47.59359,-54.27349
2023-08-12 03:04:00+00:00,160.0,4.63,164.0,5.22,12.41,47.59359,-54.27349
2023-08-12 03:14:01+00:00,149.0,3.4,145.0,4.53,12.41,47.59359,-54.27349
2023-08-12 03:24:01+00:00,161.0,4.7,160.0,5.18,12.41,47.59359,-54.27349
2023-08-12 03:34:01+00:00,174.0,3.28,174.0,3.65,12.41,47.59359,-54.27349
2023-08-12 03:44:01+00:00,208.0,1.55,212.0,1.84,12.41,47.59359,-54.27349
2023-08-12 03:54:01+00:00,125.0,0.45,103.0,0.8,12.41,47.59359,-54.27349
2023-08-12 04:04:01+00:00,135.0,2.95,133.0,4.12,12.41,47.59359,-54.27349
2023-08-12 04:14:01+00:00,133.0,3.14,126.0,3.87,12.41,47.59359,-54.27349
2023-08-12 04:24:01+00:00,136.0,4.22,136.0,5.0,12.41,47.59359,-54.27349
2023-08-12 04:34:01+00:00,148.0,7.45,149.0,8.64,12.41,47.59359,-54.27349
2023-08-12 04:44:01+00:00,149.0,7.68,150.0,8.4,12.41,47.59359,-54.27349
2023-08-12 04:54:01+00:00,155.0,7.87,153.0,8.7,12.41,47.59359,-54.27349
2023-08-12 05:04:01+00:00,163.0,7.7,166.0,8.78,12.41,47.59359,-54.27349
2023-08-12 05:14:00+00:00,160.0,8.91,159.0,9.77,12.41,47.59359,-54.27349
2023-08-12 05:24:00+00:00,155.0,8.75,157.0,10.36,12.41,47.59359,-54.27349
2023-08-12 05:34:00+00:00,165.0,8.25,163.0,9.14,12.41,47.59359,-54.27349
2023-08-12 05:44:00+00:00,208.0,9.56,204.0,11.39,12.41,47.59359,-54.27349
2023-08-12 05:54:00+00:00,181.0,9.25,178.0,10.55,12.41,47.59359,-54.27349
2023-08-12 06:04:00+00:00,199.0,9.96,201.0,13.53,12.41,47.59359,-54.27349
2023-08-12 06:14:00+00:00,203.0,9.84,204.0,11.37,12.41,47.59359,-54.27349
2023-08-12 06:24:00+00:00,202.0,10.08,199.0,11.12,12.41,47.59359,-54.27349
2023-08-12 06:34:00+00:00,206.0,11.09,202.0,13.08,12.41,47.59359,-54.27349
2023-08-12 06:44:00+00:00,214.0,9.91,216.0,11.38,12.41,47.59359,-54.27349
2023-08-12 06:54:00+00:00,218.0,8.8,220.0,10.01,12.41,47.59359,-54.27349
2023-08-12 07:04:00+00:00,216.0,9.15,227.0,10.51,12.41,47.59359,-54.27349
2023-08-12 07:14:01+00:00,220.0,9.42,220.0,10.72,12.33,47.59359,-54.27349
2023-08-12 07:24:01+00:00,220.0,7.76,223.0,8.97,12.33,47.59359,-54.27349
2023-08-12 07:34:01+00:00,216.0,10.07,207.0,12.6,12.33,47.59359,-54.27349
2023-08-12 07:44:01+00:00,217.0,9.73,217.0,11.61,12.33,47.59359,-54.27349
2023-08-12 07:54:01+00:00,216.0,8.65,214.0,9.7,12.33,47.59359,-54.27349
2023-08-12 08:04:01+00:00,216.0,7.97,216.0,9.36,12.33,47.59359,-54.27349
2023-08-12 08:14:00+00:00,220.0,7.47,218.0,9.19,12.33,47.59359,-54.27349
2023-08-12 08:24:00+00:00,216.0,9.65,218.0,11.81,12.33,47.59359,-54.27349
2023-08-12 08:34:00+00:00,210.0,8.09,208.0,9.03,12.33,47.59359,-54.27349
2023-08-12 08:44:00+00:00,208.0,7.94,208.0,8.84,12.33,47.59359,-54.27349
2023-08-12 08:54:00+00:00,199.0,8.55,203.0,9.63,12.33,47.59359,-54.27349
2023-08-12 09:04:00+00:00,204.0,8.22,207.0,9.24,12.33,47.59359,-54.27349
2023-08-12 09:14:01+00:00,209.0,8.55,209.0,10.46,12.25,47.59359,-54.27349
2023-08-12 09:24:01+00:00,214.0,8.89,212.0,10.01,12.25,47.59359,-54.27349
2023-08-12 09:34:01+00:00,213.0,8.44,216.0,9.5,12.25,47.59359,-54.27349
2023-08-12 09:44:01+00:00,215.0,8.36,216.0,9.68,12.25,47.59359,-54.27349
2023-08-12 09:54:01+00:00,213.0,7.66,213.0,9.15,12.25,47.59359,-54.27349
2023-08-12 10:04:01+00:00,211.0,8.04,209.0,9.11,12.25,47.59359,-54.27349
2023-08-12 10:14:00+00:00,216.0,9.16,216.0,10.36,12.49,47.59359,-54.27349
2023-08-12 10:24:00+00:00,216.0,8.45,218.0,9.46,12.49,47.59359,-54.27349
2023-08-12 10:34:00+00:00,210.0,8.86,203.0,10.0,12.49,47.59359,-54.27349
2023-08-12 10:44:00+00:00,207.0,8.08,205.0,9.31,12.49,47.59359,-54.27349
2023-08-12 10:54:00+00:00,208.0,7.48,206.0,8.66,12.49,47.59359,-54.27349
2023-08-12 11:04:00+00:00,207.0,7.75,213.0,8.81,12.49,47.59359,-54.27349
2023-08-12 11:14:00+00:00,210.0,8.61,210.0,9.21,13.44,47.59359,-54.27349
2023-08-12 11:24:00+00:00,218.0,7.95,215.0,8.86,13.44,47.59359,-54.27349
2023-08-12 11:34:00+00:00,222.0,7.09,224.0,8.18,13.44,47.59359,-54.27349
2023-08-12 11:44:00+00:00,213.0,8.57,217.0,9.54,13.44,47.59359,-54.27349
2023-08-12 11:54:00+00:00,208.0,8.02,206.0,9.22,13.44,47.59359,-54.27349
2023-08-12 12:04:00+00:00,211.0,8.35,214.0,9.05,13.44,47.59359,-54.27349
2023-08-12 12:14:00+00:00,205.0,7.59,211.0,8.55,13.6,47.59359,-54.27349
2023-08-12 12:24:00+00:00,207.0,7.21,206.0,8.21,13.6,47.59359,-54.27349
2023-08-12 12:34:00+00:00,221.0,8.26,217.0,9.18,13.6,47.59359,-54.27349
2023-08-12 12:44:00+00:00,230.0,8.24,234.0,9.88,13.6,47.59359,-54.27349
2023-08-12 12:54:00+00:00,210.0,7.26,214.0,8.67,13.6,47.59359,-54.27349
2023-08-12 13:04:00+00:00,214.0,9.74,217.0,11.16,13.6,47.59359,-54.27349
2023-08-12 13:14:00+00:00,214.0,9.19,216.0,10.33,13.53,47.59359,-54.27349
2023-08-12 13:24:00+00:00,216.0,10.04,220.0,11.59,13.53,47.59359,-54.27349
2023-08-12 13:34:00+00:00,212.0,10.84,215.0,12.74,13.53,47.59359,-54.27349
2023-08-12 13:44:00+00:00,214.0,10.66,215.0,11.8,13.53,47.59359,-54.27349
2023-08-12 13:54:00+00:00,213.0,12.0,211.0,14.26,13.53,47.59359,-54.27349
2023-08-12 14:04:00+00:00,215.0,12.08,221.0,14.47,13.53,47.59359,-54.27349
2023-08-12 14:14:00+00:00,213.0,12.14,219.0,13.88,14.24,47.59359,-54.27349
2023-08-12 14:24:00+00:00,212.0,12.95,214.0,15.32,14.24,47.59359,-54.27349
2023-08-12 14:34:00+00:00,214.0,13.62,212.0,15.44,14.24,47.59359,-54.27349
2023-08-12 14:44:00+00:00,216.0,12.88,215.0,15.42,14.24,47.59359,-54.27349
2023-08-12 14:54:00+00:00,215.0,11.16,212.0,12.32,14.24,47.59359,-54.27349
2023-08-12 15:04:00+00:00,216.0,13.98,222.0,16.7,14.24,47.59359,-54.27349
2023-08-12 15:14:00+00:00,214.0,12.8,213.0,15.09,14.4,47.59359,-54.27349
2023-08-12 15:24:00+00:00,217.0,12.51,223.0,14.58,14.4,47.59359,-54.27349
2023-08-12 15:34:00+00:00,216.0,12.6,222.0,14.87,14.4,47.59359,-54.27349
2023-08-12 15:44:00+00:00,225.0,11.15,237.0,16.5,14.4,47.59359,-54.27349
2023-08-12 15:54:00+00:00,221.0,10.14,222.0,11.32,14.4,47.59359,-54.27349
2023-08-12 16:04:00+00:00,224.0,10.92,237.0,14.6,14.4,47.59359,-54.27349
2023-08-12 16:14:01+00:00,236.0,14.59,239.0,16.91,13.6,47.59359,-54.27349
2023-08-12 16:24:01+00:00,234.0,10.59,235.0,14.01,13.6,47.59359,-54.27349
2023-08-12 16:34:01+00:00,229.0,11.18,238.0,15.22,13.6,47.59359,-54.27349
2023-08-12 16:44:01+00:00,238.0,12.94,239.0,16.15,13.6,47.59359,-54.27349
2023-08-12 16:54:01+00:00,240.0,12.97,239.0,15.6,13.6,47.59359,-54.27349
2023-08-12 17:04:01+00:00,248.0,11.17,253.0,14.32,13.6,47.59359,-54.27349
2023-08-12 17:14:01+00:00,249.0,11.61,250.0,14.02,14.08,47.59359,-54.27349
2023-08-12 17:24:01+00:00,254.0,13.63,253.0,15.26,14.08,47.59359,-54.27349
2023-08-12 17:34:01+00:00,250.0,13.27,251.0,15.13,14.08,47.59359,-54.27349
2023-08-12 17:44:01+00:00,259.0,14.54,260.0,16.75,14.08,47.59359,-54.27349
2023-08-12 17:54:01+00:00,258.0,12.31,257.0,14.64,14.08,47.59359,-54.27349
2023-08-12 18:04:01+00:00,250.0,13.05,249.0,15.24,14.08,47.59359,-54.27349
2023-08-12 18:14:00+00:00,253.0,12.76,256.0,14.14,14.08,47.59359,-54.27349
2023-08-12 18:24:00+00:00,246.0,13.19,246.0,15.39,14.08,47.59359,-54.27349
2023-08-12 18:34:00+00:00,238.0,10.85,246.0,15.03,14.08,47.59359,-54.27349
2023-08-12 18:44:00+00:00,243.0,13.3,248.0,15.52,14.08,47.59359,-54.27349
2023-08-12 18:54:00+00:00,252.0,12.81,254.0,14.58,14.08,47.59359,-54.27349
2023-08-12 19:04:00+00:00,244.0,10.59,253.0,14.69,14.08,47.59359,-54.27349
2023-08-12 19:14:00+00:00,243.0,13.95,240.0,16.57,13.6,47.59359,-54.27349
2023-08-12 19:24:00+00:00,248.0,13.71,248.0,15.39,13.6,47.59359,-54.27349
2023-08-12 19:34:00+00:00,250.0,12.43,254.0,14.62,13.6,47.59359,-54.27349
2023-08-12 19:44:00+00:00,244.0,13.46,245.0,15.84,13.6,47.59359,-54.27349
2023-08-12 19:54:00+00:00,249.0,13.23,250.0,15.0,13.6,47.59359,-54.27349
2023-08-12 20:04:00+00:00,249.0,13.18,252.0,14.5,13.6,47.59359,-54.27349
2023-08-12 20:14:01+00:00,244.0,13.91,239.0,16.29,13.6,47.59359,-54.27349
2023-08-12 20:24:01+00:00,245.0,12.64,245.0,15.99,13.6,47.59359,-54.27349
2023-08-12 20:34:01+00:00,246.0,13.33,244.0,15.15,13.6,47.59359,-54.27349
2023-08-12 20:44:01+00:00,247.0,13.35,249.0,16.17,13.6,47.59359,-54.27349
2023-08-12 20:54:01+00:00,255.0,10.71,256.0,12.67,13.6,47.59359,-54.27349
2023-08-12 21:04:01+00:00,256.0,11.7,256.0,13.43,13.6,47.59359,-54.27349
2023-08-12 21:14:01+00:00,251.0,11.91,248.0,14.27,13.53,47.59359,-54.27349
2023-08-12 21:24:01+00:00,252.0,12.37,251.0,14.63,13.53,47.59359,-54.27349
2023-08-12 21:34:01+00:00,248.0,10.41,250.0,13.32,13.53,47.59359,-54.27349
2023-08-12 21:44:01+00:00,246.0,13.03,241.0,15.94,13.53,47.59359,-54.27349
2023-08-12 21:54:01+00:00,253.0,12.38,251.0,14.38,13.53,47.59359,-54.27349
2023-08-12 22:04:01+00:00,254.0,11.26,256.0,12.57,13.53,47.59359,-54.27349
2023-08-12 22:14:00+00:00,252.0,11.38,254.0,13.78,13.21,47.59359,-54.27349
2023-08-12 22:24:00+00:00,262.0,11.57,260.0,13.23,13.21,47.59359,-54.27349
2023-08-12 22:34:00+00:00,265.0,9.64,263.0,12.28,13.21,47.59359,-54.27349
2023-08-12 22:44:00+00:00,258.0,11.64,257.0,13.96,13.21,47.59359,-54.27349
2023-08-12 22:54:00+00:00,253.0,12.13,251.0,14.78,13.21,47.59359,-54.27349
2023-08-12 23:04:00+00:00,252.0,12.01,253.0,14.72,13.21,47.59359,-54.27349
2023-08-12 23:14:00+00:00,252.0,12.3,256.0,14.51,12.65,47.59359,-54.27349
2023-08-12 23:24:00+00:00,252.0,12.43,249.0,14.12,12.65,47.59359,-54.27349
2023-08-12 23:34:00+00:00,251.0,11.94,251.0,14.41,12.65,47.59359,-54.27349
2023-08-12 23:44:00+00:00,250.0,10.78,252.0,14.64,12.65,47.59359,-54.27349
2023-08-12 23:54:00+00:00,252.0,8.93,256.0,13.71,12.65,47.59359,-54.27349
